Location: ?
(35.4064°N, 139.3593°E)
Time: 12:35:52
(UTC+00:00)

ARIANE 6 FM1 Upper Stage - Pass Details

Date: 11 December 2025
Orbit: 522 x 610 km, 62.0° (Epoch: 13 January)

Event Time Altitude Azimuth Distance (km) Brightness Sun altitude
Rises 20:52:24 0° 191° (S) 2,712 6.3 -10.0°
Reaches altitude 10° 20:54:47 10° 181° (S) 1,807 5.5 -9.6°
Maximum altitude 20:58:25 32° 117° (ESE) 935 4.7 -8.9°
Drops below altitude 10° 21:02:00 10° 54° (NE) 1,780 5.7 -8.2°
Sets 21:04:19 0° 44° (NE) 2,664 6.4 -7.8°
